N525LT KPVU-KBZN

Flight info

Callsign N525LT
Flight time N/A
Altitude 31000
Route TCH SABAT LOSST1
Aircraft C25B/M-SDE2E3FGHRWXYZ/LB1

Departure

Time N/A
Airport Provo Municipal Airport (KPVU)

Arrival

Time 2026-04-26 04:08
Airport Bozeman Yellowstone International Airport (KBZN)
Time Latitude Longitude Altitude Speed Heading
2026-04-26 03:15 40.92800 -111.97460 36572 ft 404 kts 356°
2026-04-26 03:15 40.95648 -111.97185 36571 ft 415 kts 356°
2026-04-26 03:15 40.98561 -111.96904 36603 ft 423 kts 356°
2026-04-26 03:16 41.04435 -111.96334 36614 ft 420 kts 356°
2026-04-26 03:16 41.10214 -111.95787 36611 ft 418 kts 356°
2026-04-26 03:17 41.16010 -111.95221 36611 ft 415 kts 356°
2026-04-26 03:17 41.21733 -111.94664 36600 ft 413 kts 356°
2026-04-26 03:18 41.27457 -111.94146 36595 ft 413 kts 356°
2026-04-26 03:18 41.33195 -111.93550 36593 ft 413 kts 356°
2026-04-26 03:19 41.38902 -111.93056 36592 ft 413 kts 356°
2026-04-26 03:19 41.44634 -111.92450 36586 ft 412 kts 356°
2026-04-26 03:20 41.50358 -111.91916 36602 ft 412 kts 356°
2026-04-26 03:20 41.56095 -111.91339 36597 ft 413 kts 357°
2026-04-26 03:21 41.61812 -111.90788 36600 ft 410 kts 355°
2026-04-26 03:21 41.67484 -111.90257 36617 ft 411 kts 356°
2026-04-26 03:22 41.73199 -111.89686 36622 ft 411 kts 356°
2026-04-26 03:22 41.78908 -111.89197 36622 ft 412 kts 356°
2026-04-26 03:23 41.84613 -111.88541 36621 ft 411 kts 356°
2026-04-26 03:23 41.90315 -111.88026 36629 ft 411 kts 356°
2026-04-26 03:24 41.95992 -111.87448 36627 ft 411 kts 356°
2026-04-26 03:24 42.01709 -111.86894 36630 ft 410 kts 356°
2026-04-26 03:25 42.07418 -111.86327 36631 ft 410 kts 356°
2026-04-26 03:25 42.13117 -111.85763 36640 ft 411 kts 356°
2026-04-26 03:26 42.18787 -111.85202 36645 ft 410 kts 356°
2026-04-26 03:26 42.24478 -111.84638 36642 ft 410 kts 355°
2026-04-26 03:27 42.30163 -111.84072 36654 ft 409 kts 355°
2026-04-26 03:27 42.35852 -111.83505 36650 ft 409 kts 356°
2026-04-26 03:28 42.41488 -111.82945 36651 ft 407 kts 355°
2026-04-26 03:28 42.47133 -111.82381 36650 ft 406 kts 356°
2026-04-26 03:29 42.52777 -111.81815 36658 ft 406 kts 355°
2026-04-26 03:29 42.58416 -111.81249 36666 ft 405 kts 355°
2026-04-26 03:30 42.64005 -111.80686 36666 ft 405 kts 355°
2026-04-26 03:30 42.69638 -111.80100 36676 ft 405 kts 356°
2026-04-26 03:31 42.75264 -111.79595 36691 ft 404 kts 355°
2026-04-26 03:31 42.80852 -111.78971 36688 ft 405 kts 355°
2026-04-26 03:32 42.86472 -111.78425 36680 ft 404 kts 355°
2026-04-26 03:32 42.92090 -111.77852 36695 ft 404 kts 355°
2026-04-26 03:33 42.97706 -111.77282 36696 ft 404 kts 355°
2026-04-26 03:33 43.03281 -111.76711 36703 ft 404 kts 355°
2026-04-26 03:34 43.08905 -111.76142 36698 ft 405 kts 356°
2026-04-26 03:34 43.14513 -111.75565 36699 ft 405 kts 355°
2026-04-26 03:35 43.20161 -111.74990 36587 ft 408 kts 355°
2026-04-26 03:35 43.23013 -111.74701 36461 ft 412 kts 355°
2026-04-26 03:35 43.25877 -111.74403 36337 ft 414 kts 355°
2026-04-26 03:36 43.28758 -111.74109 36234 ft 416 kts 355°
2026-04-26 03:36 43.31621 -111.73813 36119 ft 418 kts 355°
2026-04-26 03:36 43.34533 -111.73514 35992 ft 419 kts 355°
2026-04-26 03:36 43.37451 -111.73217 35883 ft 420 kts 355°
2026-04-26 03:37 43.40378 -111.72908 35766 ft 421 kts 355°
2026-04-26 03:37 43.43316 -111.72609 35636 ft 422 kts 355°
2026-04-26 03:37 43.46250 -111.72306 35517 ft 423 kts 355°
2026-04-26 03:37 43.49150 -111.72006 35415 ft 423 kts 355°
2026-04-26 03:38 43.52097 -111.71701 35295 ft 424 kts 355°
2026-04-26 03:38 43.55045 -111.71373 35182 ft 424 kts 355°
2026-04-26 03:38 43.57993 -111.71095 35062 ft 424 kts 354°
2026-04-26 03:38 43.60950 -111.70796 34936 ft 425 kts 355°
2026-04-26 03:39 43.66794 -111.70161 34873 ft 421 kts 355°
2026-04-26 03:39 43.72605 -111.69588 34867 ft 416 kts 354°
2026-04-26 03:40 43.78375 -111.68956 34857 ft 414 kts 355°
2026-04-26 03:40 43.84055 -111.68402 34852 ft 410 kts 353°
2026-04-26 03:41 43.89755 -111.67768 34861 ft 410 kts 355°
2026-04-26 03:41 43.95441 -111.67185 34864 ft 407 kts 354°
2026-04-26 03:42 44.01060 -111.66324 34858 ft 416 kts
2026-04-26 03:42 44.06574 -111.63435 34870 ft 427 kts 17°
2026-04-26 03:43 44.11997 -111.60048 34893 ft 426 kts 16°
2026-04-26 03:43 44.17411 -111.56642 34911 ft 426 kts 16°
2026-04-26 03:44 44.22781 -111.53260 34910 ft 426 kts 16°
2026-04-26 03:44 44.28187 -111.49846 34758 ft 430 kts 16°
2026-04-26 03:45 44.30939 -111.48118 34257 ft 432 kts 17°
2026-04-26 03:45 44.33673 -111.46381 33627 ft 430 kts 16°
2026-04-26 03:45 44.35468 -111.45240 33240 ft 426 kts 16°
2026-04-26 03:45 44.38150 -111.43532 32681 ft 421 kts 16°
2026-04-26 03:46 44.40810 -111.41853 32137 ft 417 kts 16°
2026-04-26 03:46 44.43443 -111.40182 31587 ft 414 kts 16°
2026-04-26 03:46 44.46896 -111.37986 30869 ft 410 kts 16°
2026-04-26 03:47 44.51202 -111.35242 29968 ft 406 kts 16°
2026-04-26 03:47 44.53771 -111.33607 29435 ft 403 kts 16°
2026-04-26 03:47 44.56317 -111.31979 28851 ft 399 kts 16°
2026-04-26 03:47 44.58829 -111.30371 28320 ft 394 kts 16°
2026-04-26 03:48 44.61292 -111.28796 27802 ft 390 kts 16°
2026-04-26 03:48 44.63762 -111.27218 27286 ft 386 kts 16°
2026-04-26 03:48 44.66202 -111.25657 26775 ft 382 kts 16°
2026-04-26 03:48 44.68610 -111.24111 26270 ft 379 kts 17°
2026-04-26 03:49 44.70973 -111.22589 25778 ft 376 kts 17°
2026-04-26 03:49 44.73343 -111.21074 25285 ft 372 kts 17°
2026-04-26 03:49 44.75694 -111.19557 24792 ft 370 kts 17°
2026-04-26 03:49 44.78035 -111.18054 24311 ft 367 kts 17°
2026-04-26 03:50 44.80352 -111.16558 23833 ft 365 kts 17°
2026-04-26 03:50 44.82624 -111.15095 23341 ft 362 kts 17°
2026-04-26 03:50 44.84911 -111.13621 22840 ft 358 kts 18°
2026-04-26 03:50 44.87165 -111.12160 22382 ft 353 kts 18°
2026-04-26 03:51 44.89403 -111.10718 21917 ft 350 kts 18°
2026-04-26 03:51 44.91601 -111.09289 21474 ft 346 kts 18°
2026-04-26 03:51 44.93782 -111.07882 21022 ft 343 kts 18°
2026-04-26 03:51 44.95925 -111.06501 20585 ft 340 kts 18°
2026-04-26 03:52 44.98071 -111.05103 20144 ft 339 kts 19°
2026-04-26 03:52 45.00211 -111.03703 19724 ft 337 kts 19°
2026-04-26 03:52 45.02346 -111.02325 19272 ft 335 kts 19°
2026-04-26 03:52 45.04466 -111.00950 18826 ft 335 kts 19°
2026-04-26 03:53 45.06581 -110.99575 18393 ft 332 kts 20°
2026-04-26 03:53 45.08667 -110.98213 17920 ft 328 kts 19°
2026-04-26 03:53 45.10707 -110.96901 17478 ft 320 kts 18°
2026-04-26 03:53 45.12802 -110.96050 17068 ft 307 kts
2026-04-26 03:54 45.14866 -110.95878 16971 ft 290 kts 353°
2026-04-26 03:54 45.16783 -110.96237 16961 ft 268 kts 340°
2026-04-26 03:54 45.18557 -110.96826 16964 ft 257 kts 341°
2026-04-26 03:54 45.20282 -110.97374 16964 ft 249 kts 339°
2026-04-26 03:55 45.21946 -110.97943 16977 ft 242 kts 339°
2026-04-26 03:55 45.23575 -110.98487 16968 ft 239 kts 340°
2026-04-26 03:55 45.25187 -110.99019 16964 ft 235 kts 339°
2026-04-26 03:55 45.26751 -110.99538 16958 ft 232 kts 340°
2026-04-26 03:56 45.28331 -111.00073 16955 ft 237 kts 339°
2026-04-26 03:56 45.29992 -111.00637 16963 ft 254 kts 340°
2026-04-26 03:56 45.31764 -111.01212 16982 ft 267 kts 340°
2026-04-26 03:56 45.33614 -111.01836 16985 ft 277 kts 340°
2026-04-26 03:57 45.35531 -111.02491 16969 ft 289 kts 341°
2026-04-26 03:57 45.37482 -111.03131 16691 ft 291 kts 341°
2026-04-26 03:57 45.39452 -111.03783 16331 ft 291 kts 341°
2026-04-26 03:57 45.41384 -111.04414 16353 ft 278 kts 342°
2026-04-26 03:58 45.43239 -111.05052 16354 ft 269 kts 341°
2026-04-26 03:58 45.45066 -111.05664 15906 ft 275 kts 340°
2026-04-26 03:58 45.46956 -111.06320 15168 ft 290 kts 343°
2026-04-26 03:58 45.48955 -111.06957 14619 ft 295 kts 342°
2026-04-26 03:59 45.50961 -111.07651 14211 ft 296 kts 343°
2026-04-26 03:59 45.52962 -111.08306 13817 ft 293 kts 343°
2026-04-26 03:59 45.54938 -111.08975 13417 ft 291 kts 342°
2026-04-26 03:59 45.56882 -111.09658 13035 ft 290 kts 343°
2026-04-26 04:00 45.58850 -111.10295 12658 ft 289 kts 344°
2026-04-26 04:00 45.60790 -111.10998 12291 ft 285 kts 339°
2026-04-26 04:00 45.62452 -111.12386 11998 ft 272 kts 314°
2026-04-26 04:00 45.63861 -111.14148 11682 ft 269 kts 320°
2026-04-26 04:01 45.65325 -111.15767 11341 ft 261 kts 316°
2026-04-26 04:01 45.66613 -111.17533 10997 ft 253 kts 311°
2026-04-26 04:01 45.67843 -111.19296 10669 ft 248 kts 313°
2026-04-26 04:01 45.69068 -111.20996 10346 ft 243 kts 313°
2026-04-26 04:02 45.70271 -111.22634 10036 ft 239 kts 314°
2026-04-26 04:02 45.71461 -111.24263 9659 ft 234 kts 313°
2026-04-26 04:02 45.72616 -111.25861 9351 ft 228 kts 313°
2026-04-26 04:02 45.73754 -111.27422 9050 ft 223 kts 314°
2026-04-26 04:03 45.74839 -111.28979 8753 ft 219 kts 313°
2026-04-26 04:03 45.75941 -111.30413 8479 ft 206 kts 317°
2026-04-26 04:03 45.76929 -111.31776 8251 ft 192 kts 314°
2026-04-26 04:03 45.78015 -111.32811 7974 ft 186 kts 336°
2026-04-26 04:04 45.79282 -111.33371 7721 ft 195 kts 352°
2026-04-26 04:04 45.80668 -111.33322 7460 ft 202 kts
2026-04-26 04:04 45.82008 -111.32658 7186 ft 205 kts 30°
2026-04-26 04:04 45.83132 -111.31436 6915 ft 208 kts 47°
2026-04-26 04:05 45.83944 -111.29715 6624 ft 207 kts 67°
2026-04-26 04:05 45.84320 -111.27804 6462 ft 194 kts 83°
2026-04-26 04:05 45.84275 -111.25898 6170 ft 192 kts 99°
2026-04-26 04:05 45.83844 -111.24098 5854 ft 194 kts 116°
2026-04-26 04:06 45.83097 -111.22620 5569 ft 171 kts 133°
2026-04-26 04:06 45.82281 -111.21519 5374 ft 149 kts 133°
2026-04-26 04:06 45.81581 -111.20511 5220 ft 138 kts 133°
2026-04-26 04:06 45.80920 -111.19613 5057 ft 121 kts 134°
2026-04-26 04:07 45.80366 -111.18802 4914 ft 112 kts 132°
2026-04-26 04:07 45.79778 -111.18011 4782 ft 118 kts 135°
2026-04-26 04:07 45.79193 -111.17175 4612 ft 121 kts 132°
2026-04-26 04:07 45.78590 -111.16342 4487 ft 116 kts 133°
2026-04-26 04:08 45.78080 -111.15631 4478 ft 86 kts 133°
2026-04-26 04:08 45.77766 -111.15181 4475 ft 47 kts 134°
2026-04-26 04:08 45.77592 -111.14951 4477 ft 21 kts 148°
2026-04-26 04:08 45.77536 -111.14907 4477 ft 3 kts 172°
2026-04-26 04:09 45.77484 -111.14962 4476 ft 11 kts 220°
2026-04-26 04:09 45.77427 -111.15045 4476 ft 12 kts 226°
2026-04-26 04:09 45.77384 -111.15074 4476 ft 7 kts 152°
2026-04-26 04:09 45.77336 -111.15010 4476 ft 11 kts 135°
2026-04-26 04:10 45.77276 -111.14922 4476 ft 14 kts 135°
2026-04-26 04:10 45.77203 -111.14824 4476 ft 16 kts 135°
2026-04-26 04:10 45.77124 -111.14764 4476 ft 13 kts 213°
2026-04-26 04:10 45.77057 -111.14870 4476 ft 16 kts 226°
2026-04-26 04:11 45.76974 -111.14991 4476 ft 18 kts 225°
2026-04-26 04:11 45.76890 -111.15112 4476 ft 9 kts 226°
2026-04-26 04:11 45.76837 -111.15191 4476 ft 15 kts 226°
2026-04-26 04:11 45.76758 -111.15308 4476 ft 17 kts 226°
2026-04-26 04:12 45.76689 -111.15413 4476 ft 7 kts 234°
2026-04-26 04:12 45.76654 -111.15405 4476 ft 10 kts 123°
2026-04-26 04:12 45.76595 -111.15312 4476 ft 14 kts 137°
2026-04-26 04:12 45.76526 -111.15213 4476 ft 14 kts 136°
2026-04-26 04:13 45.76465 -111.15128 4476 ft 6 kts 122°
2026-04-26 04:13 45.76489 -111.15067 4476 ft 6 kts 54°
2026-04-26 04:13 45.76502 -111.14999 4476 ft 7 kts 123°
2026-04-26 04:13 45.76477 -111.15006 4476 ft 0 kts 236°